Weather History for Cooperstown, ND

Change the Weather History Date:

Tuesday, December 4, 2012

  Actual Average (KJMS) Record (KJMS)
Temperature  
Mean Temperature 14 °F 18 °F  
Max Temperature 21 °F 27 °F 59 °F (1965)
Min Temperature 8 °F 9 °F -20 °F (1964)
Degree Days  
Heating Degree Days 50 47  
Month to date heating degree days 186  
Since 1 July heating degree days 2270  
Cooling Degree Days 0 0  
Month to date cooling degree days 0  
Year to date cooling degree days 446  
Moisture  
Dew Point 10 °F    
Average Humidity 80    
Maximum Humidity 92    
Minimum Humidity 63    
Precipitation  
Precipitation 0.00 in 0.02 in 0.19 in (1977)
Month to date precipitation 0.06  
Year to date precipitation 18.43  
Sea Level Pressure  
Sea Level Pressure 30.20 in    
Wind  
Wind Speed 13 mph (NNW)    
Max Wind Speed 21 mph    
Max Gust Speed 28 mph    
Visibility 10 miles    
Events      
T = Trace of Precipitation, MM = Missing Value Source: NWS Daily Summary

Daily Weather History Graph

Daily Weather History Graph

Search for Another Location

Airport:

Trip Planner

Search our weather history database for the weather conditions in past years. The results will help you decide how hot, cold, wet, or windy it might be!

Date:

Astronomy

Dec. 04, 2012 Rise Set
Actual Time 8:03 AM CST 4:42 PM CST
Civil Twilight 7:27 AM CST 5:17 PM CST
Nautical Twilight 6:49 AM CST 5:56 PM CST
Astronomical Twilight 6:12 AM CST 6:33 PM CST
Moon 10:47 PM CST (12/4) 11:43 AM CST (12/4)
Length of Visible Light 9h 49m
Length of Day
8h 39m
Waning Gibbous, 69% of the Moon is Illuminated
Dec 4
Waning Gibbous
Dec 6
Last Quarter
Dec 13
New
Dec 19
First Quarter
Dec 28
Full

Hourly Weather History & Observations

Time (CST) Temp. Windchill Dew Point Humidity Pressure Visibility Wind Dir Wind Speed Gust Speed Precip Events Conditions
12:15 AM 15.8 °F 0.9 °F 12.2 °F 86% 29.95 in 10.0 mi NW 15.0 mph - N/A   Clear
12:35 AM 15.8 °F -0.2 °F 10.4 °F 79% 29.96 in 10.0 mi NW 17.3 mph - N/A   Clear
12:55 AM 15.8 °F 2.1 °F 12.2 °F 86% 29.97 in 10.0 mi WNW 12.7 mph 17.3 mph N/A   Clear
1:15 AM 15.8 °F 0.3 °F 10.4 °F 79% 29.98 in 10.0 mi WNW 16.1 mph 23.0 mph N/A   Clear
1:35 AM 14.0 °F -3.0 °F 10.4 °F 86% 29.98 in 10.0 mi WNW 18.4 mph 24.2 mph N/A   Clear
1:55 AM 14.0 °F -2.5 °F 10.4 °F 86% 29.98 in 10.0 mi NW 17.3 mph 23.0 mph N/A   Clear
2:15 AM 14.0 °F -2.0 °F 10.4 °F 86% 30.00 in 10.0 mi WNW 16.1 mph - N/A   Clear
2:55 AM 14.0 °F -3.9 °F 8.6 °F 79% 30.02 in 10.0 mi NW 20.7 mph 27.6 mph N/A   Clear
3:15 AM 14.0 °F -3.4 °F 8.6 °F 79% 30.03 in 10.0 mi NW 19.6 mph 26.5 mph N/A   Clear
3:35 AM 12.2 °F -3.1 °F 8.6 °F 85% 30.03 in 10.0 mi NW 13.8 mph - N/A   Clear
3:55 AM 12.2 °F -4.3 °F 8.6 °F 85% 30.04 in 10.0 mi NW 16.1 mph 20.7 mph N/A   Clear
4:15 AM 12.2 °F -4.8 °F 8.6 °F 85% 30.05 in 10.0 mi NW 17.3 mph 21.9 mph N/A   Clear
4:35 AM 12.2 °F -4.3 °F 8.6 °F 85% 30.05 in 10.0 mi NW 16.1 mph 23.0 mph N/A   Clear
4:55 AM 12.2 °F -3.1 °F 8.6 °F 85% 30.07 in 10.0 mi NW 13.8 mph 21.9 mph N/A   Scattered Clouds
5:15 AM 12.2 °F -5.8 °F 8.6 °F 85% 30.07 in 10.0 mi NW 19.6 mph 26.5 mph N/A   Overcast
5:35 AM 14.0 °F -0.8 °F 8.6 °F 79% 30.08 in 10.0 mi NW 13.8 mph 20.7 mph N/A   Overcast
6:15 AM 14.0 °F -0.8 °F 8.6 °F 79% 30.10 in 10.0 mi NW 13.8 mph - N/A   Overcast
6:35 AM 14.0 °F 2.0 °F 8.6 °F 79% 30.12 in 10.0 mi NW 9.2 mph - N/A   Mostly Cloudy
6:55 AM 12.2 °F -3.1 °F 8.6 °F 85% 30.14 in 10.0 mi NW 13.8 mph - N/A   Scattered Clouds
7:15 AM 12.2 °F -1.8 °F 8.6 °F 85% 30.14 in 10.0 mi NW 11.5 mph - N/A   Clear
7:35 AM 12.2 °F -1.8 °F 8.6 °F 85% 30.16 in 10.0 mi NW 11.5 mph - N/A   Clear
7:55 AM 12.2 °F -3.1 °F 8.6 °F 85% 30.17 in 10.0 mi NW 13.8 mph 18.4 mph N/A   Clear
8:15 AM 12.2 °F -2.5 °F 8.6 °F 85% 30.18 in 10.0 mi NW 12.7 mph - N/A   Clear
8:35 AM 12.2 °F -1.8 °F 8.6 °F 85% 30.19 in 10.0 mi NW 11.5 mph - N/A   Clear
8:55 AM 14.0 °F -0.2 °F 8.6 °F 79% 30.20 in 10.0 mi NW 12.7 mph 20.7 mph N/A   Clear
9:15 AM 14.0 °F -2.0 °F 8.6 °F 79% 30.21 in 10.0 mi NW 16.1 mph 20.7 mph N/A   Clear
9:35 AM 14.0 °F -2.0 °F 10.4 °F 86% 30.22 in 10.0 mi NW 16.1 mph - N/A   Clear
9:55 AM 15.8 °F 1.4 °F 10.4 °F 79% 30.23 in 10.0 mi NW 13.8 mph - N/A   Clear
10:15 AM 15.8 °F -0.6 °F 8.6 °F 73% 30.23 in 10.0 mi NNW 18.4 mph - N/A   Clear
10:35 AM 15.8 °F -0.2 °F 8.6 °F 73% 30.25 in 10.0 mi NNW 17.3 mph - N/A   Clear
10:55 AM 15.8 °F 1.4 °F 8.6 °F 73% 30.25 in 10.0 mi NNW 13.8 mph - N/A   Clear
11:15 AM 17.6 °F 4.3 °F 8.6 °F 68% 30.25 in 10.0 mi NNW 12.7 mph - N/A   Clear
11:35 AM 17.6 °F 4.3 °F 8.6 °F 68% 30.27 in 10.0 mi NW 12.7 mph - N/A   Clear
11:55 AM 17.6 °F 4.3 °F 8.6 °F 68% 30.25 in 10.0 mi NNW 12.7 mph - N/A   Clear
12:15 PM 17.6 °F 4.3 °F 8.6 °F 68% 30.25 in 10.0 mi North 12.7 mph - N/A   Clear
12:35 PM 19.4 °F 8.6 °F 10.4 °F 68% 30.24 in 10.0 mi North 9.2 mph - N/A   Clear
12:55 PM 19.4 °F 8.6 °F 10.4 °F 68% 30.25 in 10.0 mi NNW 9.2 mph - N/A   Clear
1:15 PM 19.4 °F 9.5 °F 10.4 °F 68% 30.25 in 10.0 mi NW 8.1 mph - N/A   Clear
1:35 PM 19.4 °F 9.5 °F 10.4 °F 68% 30.26 in 10.0 mi NNW 8.1 mph - N/A   Clear
1:55 PM 19.4 °F 11.5 °F 10.4 °F 68% 30.27 in 10.0 mi NNW 5.8 mph - N/A   Clear
2:15 PM 21.2 °F 10.9 °F 10.4 °F 63% 30.27 in 10.0 mi NW 9.2 mph - N/A   Clear
2:35 PM 21.2 °F 14.9 °F 10.4 °F 63% 30.27 in 10.0 mi NNW 4.6 mph - N/A   Clear
2:55 PM 21.2 °F 14.9 °F 10.4 °F 63% 30.27 in 10.0 mi NNW 4.6 mph - N/A   Clear
3:15 PM 19.4 °F 10.4 °F 10.4 °F 68% 30.27 in 10.0 mi NW 6.9 mph - N/A   Clear
3:35 PM 19.4 °F 12.8 °F 10.4 °F 68% 30.27 in 10.0 mi NNW 4.6 mph - N/A   Clear
3:55 PM 19.4 °F 10.4 °F 10.4 °F 68% 30.28 in 10.0 mi NNW 6.9 mph - N/A   Clear
4:15 PM 19.4 °F 11.5 °F 10.4 °F 68% 30.29 in 10.0 mi North 5.8 mph - N/A   Clear
4:35 PM 17.6 °F 9.3 °F 12.2 °F 79% 30.29 in 10.0 mi NNE 5.8 mph - N/A   Clear
4:55 PM 17.6 °F 8.2 °F 12.2 °F 79% 30.28 in 10.0 mi NE 6.9 mph - N/A   Clear
5:15 PM 15.8 °F 7.2 °F 12.2 °F 86% 30.28 in 10.0 mi NNE 5.8 mph - N/A   Clear
5:35 PM 15.8 °F 6.1 °F 10.4 °F 79% 30.27 in 10.0 mi NE 6.9 mph - N/A   Clear
5:55 PM 15.8 °F 8.6 °F 10.4 °F 79% 30.27 in 10.0 mi NE 4.6 mph - N/A   Clear
6:15 PM 14.0 °F 5.1 °F 10.4 °F 86% 30.28 in 10.0 mi NE 5.8 mph - N/A   Clear
6:35 PM 14.0 °F 5.1 °F 10.4 °F 86% 30.28 in 10.0 mi ENE 5.8 mph - N/A   Clear
6:55 PM 12.2 °F 4.3 °F 10.4 °F 92% 30.29 in 10.0 mi ENE 4.6 mph - N/A   Clear
7:15 PM 12.2 °F - 10.4 °F 92% 30.30 in 10.0 mi Calm Calm - N/A   Clear
7:35 PM 10.4 °F 2.2 °F 8.6 °F 92% 30.30 in 10.0 mi East 4.6 mph - N/A   Clear
7:55 PM 10.4 °F 4.0 °F 8.6 °F 92% 30.30 in 10.0 mi East 3.5 mph - N/A   Clear
8:15 PM 10.4 °F 0.8 °F 8.6 °F 92% 30.30 in 10.0 mi ESE 5.8 mph - N/A   Clear
8:35 PM 8.6 °F 0.1 °F 6.8 °F 92% 30.31 in 10.0 mi ESE 4.6 mph - N/A   Clear
8:55 PM 10.4 °F -0.4 °F 8.6 °F 92% 30.30 in 10.0 mi ESE 6.9 mph - N/A   Clear
9:15 PM 12.2 °F -0.2 °F 10.4 °F 92% 30.30 in 10.0 mi ESE 9.2 mph - N/A   Clear
9:35 PM 14.0 °F 1.2 °F 10.4 °F 86% 30.30 in 10.0 mi ESE 10.4 mph - N/A   Clear
9:55 PM 14.0 °F 0.5 °F 10.4 °F 86% 30.30 in 10.0 mi ESE 11.5 mph - N/A   Clear
10:15 PM 14.0 °F 2.0 °F 10.4 °F 86% 30.29 in 10.0 mi SE 9.2 mph - N/A   Clear
10:35 PM 14.0 °F 2.0 °F 10.4 °F 86% 30.30 in 10.0 mi SE 9.2 mph - N/A   Clear
10:55 PM 12.2 °F 1.7 °F 10.4 °F 92% 30.30 in 10.0 mi SE 6.9 mph - N/A   Clear
11:15 PM 14.0 °F 2.9 °F 10.4 °F 86% 30.29 in 10.0 mi SE 8.1 mph - N/A   Scattered Clouds
11:35 PM 14.0 °F 2.0 °F 10.4 °F 86% 30.27 in 10.0 mi ESE 9.2 mph - N/A   Overcast
11:55 PM 14.0 °F 1.2 °F 10.4 °F 86% 30.27 in 10.0 mi SE 10.4 mph - N/A   Scattered Clouds